Temperature
28 27 26 26 26 26 26 26 26 27 27 26 26 26 26 25 24 24 24 23 23 22 21 21 20 21 21 21 22 22 23 23 22 22 21 20 20 20 20 19 19 19 19 19
28 26 26 27 27 26 26 26 26 26 26 26 25 25 25 24 23 22 22 21 21 20 20 20 19 19 20 20 20 21 22 22 22 22 21 20 20 20 19 19 19 19 19 18
26 25 26 26 26 25 25 25 24 24 24 25 25 24 24 22 21 20 20 19 19 19 19 19 18 18 19 19 19 20 21 21 21 21 21 20 20 19 19 19 19 18 18 18
26 26 25 25 24 24 23 24 23 23 23 23 24 22 21 20 19 18 18 18 18 18 18 18 18 17 17 17 18 19 20 20 21 21 20 20 20 19 19 19 19 18 18 18
24 24 24 23 23 23 23 24 23 23 23 23 23 23 20 18 17 17 17 17 17 17 17 17 17 16 16 17 17 18 19 19 20 20 19 19 19 19 18 18 18 18 17 17
24 24 23 23 23 24 24 24 24 24 23 22 22 21 17 16 15 16 16 16 16 16 16 16 16 16 16 16 16 17 17 18 18 19 19 18 18 18 18 17 17 17 17 17
24 23 23 22 22 23 23 22 22 22 21 21 21 19 15 15 15 15 15 15 15 15 15 15 15 15 15 15 15 16 16 17 17 17 17 17 17 17 17 17 16 16 16 16
25 23 22 22 21 21 22 22 20 19 20 20 20 17 15 15 15 14 14 14 14 14 14 14 14 14 14 15 15 15 15 16 16 16 16 17 16 16 16 16 16 16 16 16
24 22 22 22 22 21 21 21 21 20 20 19 18 16 16 15 15 14 14 13 13 13 13 13 13 14 14 14 14 14 15 15 15 15 16 16 16 15 15 15 15 15 15 15
23 22 22 22 22 22 21 21 20 19 18 18 17 15 13 13 13 13 13 12 12 12 13 13 13 13 13 14 14 14 14 14 14 15 15 15 15 15 15 15 15 15 15 15
22 23 22 21 20 19 20 20 19 19 19 17 16 14 14 13 13 12 12 12 12 12 12 12 12 13 13 13 14 14 14 14 14 14 14 15 15 15 15 15 15 15 15 15
22 22 22 20 20 21 20 19 19 18 17 17 16 14 14 13 13 12 12 12 12 12 12 12 13 13 13 13 13 13 14 14 14 14 14 14 14 14 15 15 15 15 15 16
20 22 21 20 20 20 19 19 19 19 18 16 15 14 15 14 14 13 13 13 13 13 13 13 13 13 13 13 13 13 13 13 13 14 14 14 14 14 15 15 15 15 15 15
18 21 20 19 18 19 19 19 19 19 17 16 15 15 15 15 15 14 14 14 14 14 14 14 13 13 13 13 13 13 13 13 13 13 13 14 14 14 14 15 15 15 15 15
21 21 20 19 19 19 19 19 19 18 17 16 16 16 15 16 15 15 15 15 15 14 14 14 14 14 14 14 14 13 13 13 13 13 13 13 13 13 14 14 14 15 15 15
22 21 21 20 20 20 19 19 19 18 18 17 17 16 17 16 16 16 16 15 15 15 15 14 14 14 14 14 14 14 13 13 13 13 13 13 13 13 13 13 14 14 14 15
22 22 21 21 20 20 20 19 19 18 18 18 17 17 17 17 16 16 16 16 15 15 15 14 14 15 15 15 15 14 14 13 13 12 12 12 13 13 13 13 13 13 14 14
21 21 21 21 21 19 19 20 19 19 19 19 18 18 17 17 17 16 16 15 15 15 14 14 14 15 15 15 15 14 14 13 13 12 12 12 12 12 12 13 13 13 13 13
21 20 21 22 21 20 19 19 19 18 19 19 18 18 17 17 17 16 16 15 15 14 14 14 14 15 15 15 15 14 14 13 12 12 12 12 12 12 12 12 12 12 12 12
20 20 20 21 20 20 19 20 19 19 18 19 18 18 18 18 16 16 16 15 15 14 14 14 14 15 15 15 15 14 14 13 12 12 12 12 11 12 12 12 12 12 12 12
21 20 20 20 20 21 19 18 18 18 17 18 18 17 17 16 16 16 16 15 15 14 14 14 14 14 14 14 14 14 13 13 12 12 12 12 11 11 11 11 11 11 11 11
22 22 22 21 21 20 19 18 19 18 18 17 17 16 16 16 16 15 15 15 15 14 14 14 14 14 14 14 14 14 13 13 13 12 12 12 11 11 11 11 11 11 11 11
22 22 21 21 20 19 19 19 18 18 17 17 16 16 15 15 15 15 15 15 15 14 14 14 14 14 15 14 14 14 13 13 13 13 12 12 12 11 11 11 11 11 11 11
23 22 21 20 20 19 18 18 17 17 17 16 15 15 15 15 15 15 15 15 14 14 14 14 14 14 14 14 14 14 14 14 14 13 13 12 12 11 11 11 11 11 11 11
22 21 21 21 20 19 18 17 17 16 16 16 15 15 15 15 15 14 15 14 14 14 14 14 14 14 14 14 14 14 14 14 14 13 13 12 12 12 11 11 11 11 11 11
23 21 21 21 20 19 18 17 17 16 15 15 15 15 15 14 14 14 14 14 14 14 14 14 14 14 14 14 14 14 14 14 14 13 13 12 12 12 11 11 11 10 10 10
Wind_Speed
2 2 5 7 8 9 12 12 13 10 5 6 9 7 1 5 5 6 7 9 10 11 12 12 12 11 11 9 9 9 7 5 6 6 6 6 5 4 4 4 4 4 4 4
3 6 7 7 7 10 12 13 13 10 9 9 10 11 4 6 8 9 11 11 12 12 12 12 11 12 12 11 10 9 9 6 5 6 7 6 6 4 4 4 3 5 5 4
7 7 8 8 8 10 12 11 12 13 14 12 13 11 4 6 10 11 12 12 12 12 13 13 12 11 11 11 11 9 8 7 3 5 7 7 5 4 4 4 3 3 5 5
5 8 9 9 9 11 11 12 13 14 13 9 10 8 5 8 13 16 16 15 14 15 15 12 12 12 12 12 12 11 8 6 4 2 6 9 7 6 6 5 5 4 4 4
7 9 10 10 11 10 10 15 17 16 13 13 11 9 5 11 14 15 15 16 15 15 15 13 12 12 12 13 12 11 10 7 6 2 3 6 5 5 4 4 6 5 4 4
8 7 7 10 12 9 12 16 16 13 9 7 6 5 7 10 15 17 17 16 15 15 14 14 13 11 11 12 11 10 9 8 7 4 3 3 5 6 5 4 5 4 3 3
7 10 9 11 12 10 13 13 6 3 2 3 8 6 7 11 15 16 17 18 17 15 14 13 13 12 11 12 12 10 9 9 7 6 5 4 4 5 6 4 4 4 3 2
1 6 9 10 10 9 11 11 7 5 6 6 6 5 5 12 14 15 15 16 16 15 14 12 12 11 11 12 13 12 10 9 9 8 6 5 4 3 2 3 4 4 3 4
6 6 7 7 6 9 9 9 7 6 7 4 4 5 5 16 18 19 19 18 17 16 15 13 12 11 12 12 13 12 10 10 9 8 6 5 3 3 2 1 2 3 4 5
7 2 5 5 5 9 8 8 5 5 5 4 4 5 8 17 18 18 18 17 17 16 15 14 12 12 12 11 11 12 11 9 8 7 5 4 3 3 1 1 2 3 3 3
8 3 4 5 7 10 10 10 7 4 3 4 4 3 6 9 12 14 15 14 14 15 13 13 13 12 11 12 12 12 12 12 10 9 7 6 5 4 3 2 2 2 2 3
5 5 2 7 6 4 8 9 8 5 5 4 3 3 4 5 7 9 10 11 11 12 12 12 12 11 10 11 11 11 11 11 10 9 8 8 6 5 5 4 3 2 2 2
6 6 1 6 4 4 8 9 8 4 2 4 3 2 2 3 5 7 8 9 9 10 10 10 10 9 9 9 10 10 9 9 9 8 8 7 7 6 6 6 6 5 3 2
4 4 8 6 5 5 6 8 8 6 3 4 4 2 3 5 6 7 7 7 7 8 8 8 7 7 7 7 7 8 8 7 7 8 8 8 7 6 6 6 6 6 5 3
4 3 6 5 3 3 4 6 7 7 5 4 3 3 4 4 4 6 6 6 7 8 8 8 7 6 5 5 6 6 6 7 8 9 9 9 7 6 6 6 6 6 7 6
3 1 0 2 3 1 2 2 2 3 3 3 2 3 3 2 3 5 7 8 8 8 9 8 8 7 6 5 5 5 7 7 8 8 9 9 9 9 8 7 7 7 7 7
2 4 4 1 5 3 2 1 1 1 1 1 2 3 3 4 5 7 8 9 9 9 9 9 9 8 8 7 6 5 6 7 8 8 8 8 9 9 9 9 8 8 8 8
5 4 3 4 3 2 4 4 2 1 1 1 1 2 2 3 2 4 7 8 9 10 9 9 9 8 8 8 7 6 6 8 8 8 8 8 9 9 9 9 9 8 7 6
4 4 4 4 5 2 5 4 3 2 2 2 1 1 2 3 2 6 8 8 8 8 7 7 8 7 7 8 7 7 7 8 8 8 8 8 8 8 9 9 9 7 6 6
2 3 4 4 5 2 6 7 3 2 1 5 3 2 3 5 3 5 8 8 8 7 6 7 7 7 7 7 7 7 7 7 7 7 7 7 6 7 8 8 8 7 6 6
4 5 4 5 4 3 8 7 3 1 4 5 4 3 5 7 6 5 7 7 6 6 6 7 7 6 6 7 6 7 7 7 6 6 6 6 6 6 6 6 6 6 6 6
4 3 3 3 3 3 9 5 1 5 7 5 4 5 5 5 5 6 6 5 6 6 6 7 7 6 5 6 6 5 5 5 4 4 4 5 6 7 7 6 6 7 7 7
2 3 4 4 3 7 5 3 5 5 5 5 4 5 3 3 4 5 5 6 6 6 6 6 7 7 5 5 5 5 4 3 2 3 3 4 5 6 7 7 7 7 7 6
1 3 1 2 3 7 5 4 5 3 4 5 4 3 2 3 4 5 6 6 6 6 6 6 7 7 6 5 4 4 4 4 2 2 3 4 5 6 7 6 6 6 7 7
2 2 3 4 3 6 6 5 6 6 4 4 4 2 2 3 4 5 5 6 6 5 5 5 6 7 6 5 4 4 4 6 4 4 4 5 5 5 5 6 6 6 6 5
5 5 4 1 4 2 5 8 8 7 6 4 3 2 2 1 3 4 5 5 5 5 5 6 7 7 7 6 5 4 3 5 5 5 5 4 3 3 4 4 4 7 6 7
Wind_Direction
232 311 16 10 1 332 315 304 300 305 337 321 303 302 216 108 73 30 22 18 18 11 2 6 354 347 338 332 321 310 292 232 193 182 175 166 170 160 145 144 145 149 135 117
237 48 18 354 335 321 312 307 310 321 344 327 309 302 310 92 66 42 23 16 15 2 357 1 354 353 350 346 336 318 312 280 215 181 172 168 162 158 145 137 128 120 114 100
58 38 4 342 341 340 320 331 333 325 319 301 291 282 305 82 55 39 24 13 8 2 357 359 358 357 352 347 339 326 316 309 285 179 160 152 145 149 156 151 148 141 133 134
59 34 8 351 354 344 318 340 325 308 303 295 293 288 32 56 34 23 12 2 5 1 354 357 360 1 359 356 352 345 336 332 320 204 169 164 166 177 180 162 152 142 130 132
64 33 14 359 345 330 316 310 294 282 277 279 290 284 51 34 20 5 -0 354 357 357 352 354 1 2 360 360 359 357 359 360 352 341 173 167 164 160 147 150 150 148 141 139
93 71 40 359 328 324 316 308 288 259 255 269 339 339 37 20 3 355 352 350 354 353 352 355 360 3 0 2 3 3 7 9 10 22 70 122 141 144 152 167 165 164 159 161
126 80 51 15 359 356 345 341 339 352 349 10 16 45 47 13 6 357 349 348 351 352 354 357 359 2 6 6 5 8 15 18 23 39 60 74 115 139 158 164 173 172 161 185
31 74 42 22 13 347 348 2 2 337 337 336 18 58 50 12 4 359 354 350 352 355 354 359 2 5 11 11 8 11 19 22 29 41 54 66 84 102 136 168 178 187 187 196
9 73 59 35 9 7 357 4 340 312 315 325 47 69 18 4 2 1 359 357 357 355 355 3 8 14 18 16 11 12 19 24 28 34 40 45 67 92 106 176 203 205 207 204
344 60 70 43 22 29 15 355 346 348 351 346 36 47 358 351 353 355 358 359 357 357 2 9 14 19 19 17 13 16 19 21 25 28 33 42 35 45 39 279 256 241 217 202
333 324 109 73 37 18 14 15 1 346 8 352 0 36 3 346 343 349 355 359 3 5 12 17 19 19 20 20 19 18 17 20 20 21 27 32 23 16 7 340 300 287 238 206
1 311 86 95 97 51 31 15 10 14 8 13 41 42 10 347 345 352 357 3 9 13 17 19 19 17 18 19 18 17 16 16 16 18 24 22 15 7 352 334 317 302 276 235
343 318 322 143 139 47 31 20 11 7 16 27 37 42 25 10 2 3 7 9 9 12 15 15 14 13 13 15 13 12 12 12 12 18 19 17 18 9 359 347 346 332 314 292
296 11 37 44 47 18 16 17 15 21 33 46 55 50 34 18 7 7 11 12 15 11 10 15 8 9 14 15 11 5 5 7 14 19 16 12 18 10 360 356 353 345 342 331
288 44 71 80 81 32 24 21 25 38 42 52 68 57 34 7 2 5 11 12 18 20 16 13 9 7 12 16 8 8 10 17 24 26 19 12 13 14 8 1 355 354 356 351
315 346 231 200 168 266 327 15 30 42 47 75 85 73 43 13 13 13 20 20 22 20 17 12 9 1 5 18 7 21 22 25 33 32 23 12 17 20 16 13 11 3 0 3
326 319 311 301 146 251 277 139 155 71 51 9 29 60 14 9 18 19 18 17 21 18 17 10 2 1 2 13 18 40 42 34 34 34 31 22 20 17 15 16 14 7 8 13
336 329 294 286 250 292 99 105 116 275 257 188 48 62 14 348 20 45 34 21 21 16 12 3 351 356 4 11 17 33 49 45 37 27 27 27 27 21 18 18 13 8 10 13
334 313 296 313 325 121 138 152 169 250 282 154 149 59 8 309 146 66 43 33 26 16 7 351 339 351 8 5 11 27 37 45 37 28 25 26 28 24 20 17 10 8 9 11
250 260 286 309 313 358 112 120 126 239 223 106 102 60 5 358 68 42 28 32 26 17 4 349 344 358 3 359 11 31 35 39 37 30 29 27 31 35 25 16 9 7 9 9
224 209 238 281 288 84 114 121 158 269 94 88 82 62 36 40 42 25 23 29 27 21 12 358 348 352 351 356 13 34 32 36 36 33 34 29 26 39 42 22 10 12 13 16
307 305 299 292 295 104 135 151 182 84 102 97 84 67 55 39 33 24 15 30 33 21 17 360 340 339 346 2 9 40 35 25 34 37 42 45 47 35 32 29 20 19 16 21
231 325 345 355 53 112 152 122 84 86 105 103 89 77 59 27 27 21 8 27 32 19 14 355 336 335 355 19 11 28 30 8 20 39 56 53 64 61 39 29 27 24 21 23
123 95 285 283 164 154 166 151 127 121 106 100 93 83 48 21 16 13 5 23 22 14 9 353 344 347 357 8 13 40 13 342 356 38 62 72 62 62 55 39 32 35 24 17
317 156 243 253 153 136 172 182 165 148 141 133 124 112 56 16 14 7 1 16 6 1 5 356 349 343 346 360 14 51 17 339 355 35 50 76 85 85 80 70 43 39 50 33
204 194 218 322 117 161 159 169 170 162 166 162 160 148 116 42 15 359 357 360 352 355 9 3 353 344 348 360 9 47 27 343 10 39 35 42 78 89 104 114 94 55 55 48
Height
1503 1506 1511 1510 1509 1510 1509 1509 1509 1504 1500 1503 1505 1504 1504 1506 1509 1511 1512 1513 1513 1514 1513 1511 1509 1507 1506 1505 1504 1504 1504 1505 1506 1506 1509 1511 1513 1516 1519 1522 1525 1527 1529 1532
1504 1512 1510 1509 1508 1509 1509 1511 1509 1504 1501 1504 1506 1506 1504 1507 1512 1515 1516 1517 1516 1516 1514 1512 1509 1506 1504 1502 1501 1500 1500 1501 1501 1502 1503 1505 1507 1511 1515 1518 1521 1523 1524 1527
1511 1515 1511 1511 1512 1515 1515 1515 1515 1514 1509 1506 1508 1510 1509 1511 1515 1518 1520 1521 1519 1518 1515 1512 1509 1506 1504 1501 1499 1497 1496 1496 1497 1498 1498 1500 1504 1506 1509 1512 1515 1518 1520 1522
1510 1514 1515 1515 1517 1519 1521 1514 1515 1515 1517 1515 1510 1520 1518 1517 1522 1524 1525 1525 1522 1519 1516 1513 1509 1506 1503 1500 1497 1495 1493 1492 1493 1494 1494 1495 1497 1500 1503 1506 1509 1512 1515 1517
1519 1520 1521 1523 1522 1521 1520 1515 1512 1511 1513 1516 1511 1516 1528 1525 1531 1531 1529 1528 1524 1521 1517 1514 1510 1506 1503 1499 1496 1493 1491 1490 1489 1490 1491 1493 1495 1497 1500 1502 1504 1507 1510 1513
1519 1522 1525 1527 1522 1518 1515 1510 1503 1501 1507 1522 1518 1523 1542 1542 1542 1537 1533 1529 1525 1521 1518 1514 1510 1506 1503 1500 1496 1493 1490 1489 1488 1488 1489 1491 1493 1495 1497 1499 1500 1503 1505 1509
1520 1524 1526 1528 1525 1521 1518 1519 1520 1520 1524 1528 1522 1533 1553 1547 1545 1542 1537 1531 1527 1523 1518 1514 1510 1507 1504 1501 1497 1494 1491 1489 1488 1487 1488 1489 1491 1493 1495 1497 1498 1500 1501 1504
1519 1530 1531 1531 1532 1532 1525 1525 1538 1545 1539 1533 1528 1545 1553 1549 1547 1543 1539 1534 1528 1523 1519 1515 1512 1509 1505 1503 1499 1496 1493 1491 1490 1489 1489 1490 1491 1492 1493 1495 1497 1498 1500 1502
1525 1534 1531 1533 1532 1532 1531 1531 1528 1533 1532 1537 1540 1548 1549 1549 1546 1543 1539 1535 1529 1524 1520 1517 1513 1510 1507 1505 1502 1499 1497 1494 1492 1492 1492 1492 1492 1493 1494 1495 1496 1498 1499 1501
1527 1532 1534 1533 1533 1533 1533 1532 1532 1537 1546 1550 1547 1557 1564 1556 1551 1546 1542 1538 1532 1526 1522 1518 1514 1512 1510 1507 1504 1502 1500 1497 1496 1494 1494 1493 1494 1494 1494 1495 1496 1497 1498 1500
1531 1531 1535 1535 1541 1543 1539 1538 1537 1537 1541 1553 1561 1569 1562 1560 1555 1551 1546 1541 1536 1530 1525 1521 1518 1515 1512 1509 1507 1504 1502 1500 1498 1497 1496 1496 1495 1496 1496 1496 1496 1497 1498 1499
1533 1533 1534 1540 1541 1540 1541 1542 1542 1550 1551 1549 1560 1571 1560 1559 1556 1552 1548 1543 1539 1534 1529 1525 1522 1519 1515 1512 1510 1507 1505 1503 1501 1500 1499 1499 1498 1498 1498 1497 1498 1498 1499 1500
1539 1536 1539 1547 1548 1544 1544 1543 1542 1543 1548 1555 1563 1570 1559 1558 1556 1553 1549 1546 1542 1537 1533 1529 1526 1523 1520 1517 1514 1511 1508 1506 1505 1503 1502 1501 1501 1500 1499 1499 1499 1499 1500 1500
1544 1538 1545 1554 1555 1550 1549 1547 1544 1545 1553 1559 1562 1563 1559 1557 1555 1552 1550 1547 1544 1541 1537 1533 1530 1527 1524 1522 1518 1515 1512 1510 1508 1506 1504 1503 1502 1501 1500 1500 1500 1500 1501 1501
1540 1541 1544 1548 1548 1548 1549 1550 1549 1550 1552 1557 1559 1559 1558 1556 1555 1553 1551 1548 1546 1543 1540 1537 1534 1531 1528 1525 1522 1519 1517 1514 1512 1509 1506 1505 1504 1503 1502 1501 1501 1501 1501 1501
1538 1541 1542 1545 1546 1546 1548 1548 1549 1551 1551 1553 1555 1557 1555 1555 1554 1553 1551 1549 1547 1545 1542 1540 1537 1534 1531 1529 1526 1523 1520 1518 1515 1512 1509 1507 1506 1504 1503 1503 1502 1501 1501 1501
1539 1540 1543 1541 1543 1545 1547 1546 1548 1549 1550 1552 1555 1556 1555 1554 1554 1553 1552 1550 1549 1547 1545 1542 1540 1537 1534 1532 1529 1526 1524 1521 1518 1515 1512 1510 1508 1506 1505 1504 1503 1502 1502 1502
1543 1543 1543 1540 1542 1553 1551 1544 1547 1549 1548 1549 1551 1553 1554 1554 1554 1554 1553 1552 1551 1549 1547 1544 1542 1539 1537 1534 1532 1529 1527 1524 1521 1518 1515 1513 1510 1508 1506 1505 1503 1503 1503 1503
1545 1546 1544 1540 1544 1545 1548 1545 1547 1549 1548 1547 1550 1552 1553 1552 1553 1555 1554 1553 1552 1550 1548 1546 1544 1541 1539 1537 1534 1532 1529 1526 1523 1521 1518 1515 1512 1510 1508 1506 1505 1505 1504 1504
1546 1546 1548 1544 1548 1549 1546 1544 1546 1550 1550 1548 1550 1552 1553 1552 1554 1557 1555 1554 1552 1551 1549 1546 1544 1543 1541 1538 1536 1534 1531 1529 1526 1524 1521 1518 1516 1513 1511 1509 1508 1507 1506 1505
1543 1543 1546 1545 1545 1539 1543 1545 1548 1554 1554 1551 1552 1553 1554 1555 1557 1558 1556 1554 1553 1551 1549 1547 1545 1543 1542 1540 1537 1535 1533 1531 1529 1526 1524 1521 1519 1516 1514 1512 1510 1509 1508 1507
1539 1539 1538 1540 1543 1548 1545 1547 1548 1550 1550 1552 1553 1555 1556 1557 1557 1557 1556 1555 1553 1551 1549 1547 1545 1544 1542 1540 1539 1536 1534 1533 1531 1528 1526 1524 1521 1519 1517 1515 1513 1511 1510 1509
1537 1537 1539 1540 1545 1543 1545 1546 1548 1549 1551 1553 1554 1555 1556 1557 1557 1557 1556 1555 1554 1552 1550 1548 1546 1544 1543 1541 1539 1537 1536 1534 1532 1530 1528 1526 1524 1522 1519 1517 1515 1513 1512 1511
1531 1535 1538 1539 1538 1541 1544 1546 1548 1550 1551 1553 1555 1556 1556 1557 1557 1557 1556 1555 1554 1552 1550 1548 1546 1545 1543 1541 1539 1538 1536 1534 1533 1531 1530 1528 1526 1524 1522 1520 1518 1516 1514 1513
1534 1535 1537 1537 1537 1541 1543 1545 1547 1550 1551 1553 1555 1556 1556 1557 1557 1556 1556 1555 1554 1553 1551 1549 1547 1545 1544 1542 1540 1538 1536 1535 1534 1533 1531 1530 1528 1526 1524 1522 1521 1519 1517 1516
1530 1533 1536 1536 1536 1538 1540 1543 1546 1548 1551 1553 1554 1555 1556 1556 1556 1556 1556 1555 1554 1553 1551 1549 1547 1545 1544 1542 1541 1539 1537 1536 1535 1533 1532 1531 1530 1528 1526 1525 1524 1522 1521 1519